Regional Weather Roundup
Issued by NWS

Home | Current Version | Previous Version | Text Only | Print | Product List | Glossary On
Versions: 1 2 3 4 5 6 7 8 9 10 11 12 13 14 15 16 17 18 19 20 21 22 23 24 25 26 27 28 29 30 31 32 33 34 35 36 37 38 39 40 41 42 43 44 45 46 47 48 49 50
720
ASUS42 KTBW 062116
RWRFL
FLORIDA REGIONAL WEATHER ROUNDUP
NATIONAL WEATHER SERVICE TAMPA BAY RUSKIN FL
400 PM EST SAT FEB 06 2016

NOTE: "FAIR" INDICATES FEW OR NO CLOUDS BELOW 12,000 FEET WITH NO
SIGNIFICANT WEATHER AND/OR OBSTRUCTIONS TO VISIBILITY.


FLZ001>010-012>015-112-114-115-062200-
PANHANDLE FLORIDA

CITY           SKY/WX    TMP DP  RH WIND       PRES   REMARKS
PENSACOLA      SUNNY     59  19  21 NE9       30.20F
PENSACOLA NAS  MOSUNNY   57  17  21 W9        30.22R
MILTON NAS       N/A     58  21  24 N9        30.20F
CRESTVIEW      SUNNY     59  20  22 VRB5      30.21F
DUKE FIELD     FAIR      58  19  22 NW9       30.18F
VALPARAISO     MOSUNNY   59  20  22 NW8       30.19R
MARY ESTHER    SUNNY     56  23  27 SW8       30.18  HAZE
TRI COUNTY     FAIR      57  25  29 NE5       30.19F
PANAMA CITY    FAIR      59  28  30 NW12      30.17F
TYNDALL AFB    SUNNY     58  27  30 N3        30.17S
APALACHICOLA   CLOUDY    56  31  38 NE10      30.17F

STATION/POSITION SKY/WX   TEMP    WIND        PRES    WAVE   SWELL
                          AIR SEA DIR/SP/G            HT/PER HT/PER
                          (F)     (DEG/KT/KT) (MB)    (FT/S) (FT/S)
30.1N   87.6W              54 62  320/  2/  4 1023.2F   1/ 5   2/ 5
28.8N   86.0W              57 70  360/ 10/ 14 1022.0R   2/ 5   2/ 5
PANAMA CITY BEAC           54 63  270/  7/  9 1022.5F
CAPE SAN BLAS    NOT AVBL
TOWER C          NOT AVBL
28.5N   84.5W              57 69  360/ 16/ 19 1020.7F   4/ 6

$$
FLZ011-016>038-118-127-128-134-139-239-062200-
NORTH FLORIDA

CITY           SKY/WX    TMP DP  RH WIND       PRES   REMARKS
MARIANNA       SUNNY     55  28  35 NE8       30.19S
TALLAHASSEE    PTSUNNY   52  31  44 N9        30.19F
PERRY          CLOUDY    46  44  90 NW7       30.22R WCI  43
LIVE OAK         N/A     48  46  93 NW6       30.22R
CROSS CITY       N/A     47  45  93 N7        30.17S WCI  44
LAKE CITY      DRIZZLE   46  45  93 N12       30.15F WCI  41
GAINESVILLE    LGT RAIN  53  51  93 N7        30.13S FOG
WILLISTON      CLOUDY    55  54  94 W7        30.14R VSB 1
KEYSTONE HEIGH CLOUDY    54  52  94 NE7       30.12F VSB 3/4
PALATKA        CLOUDY    57  54  88 NE8       30.11S
MAYPORT NAS    CLOUDY    56  51  84 N16G28    30.12F
JACKSONVILLE   CLOUDY    53  47  79 N12G21    30.14F
JAX NAS        CLOUDY    56  49  77 N15       30.13F
JAX CRAIG      CLOUDY    56  50  80 N15G23    30.13F
JAX CECIL      CLOUDY    54  48  82 N12       30.14F
FERNANDINA BEA CLOUDY    55  48  76 N12G21    30.12F
ST AUGUSTINE   CLOUDY    58  54  86 N14G25    30.11F FOG
PALM COAST     RAIN      57  57 100 N5        30.09F

STATION/POSITION SKY/WX   TEMP    WIND        PRES    WAVE   SWELL
                          AIR SEA DIR/SP/G            HT/PER HT/PER
                          (F)     (DEG/KT/KT) (MB)    (FT/S) (FT/S)
SHELL POINT                49     350/  8/ 12 1021.6
KEATON BEACH               45     360/  5/  8 1022.8F
CEDAR KEY                  48     340/ 11/ 16 1021.1F
FERNANDINA                 54 56  360/  9/ 16 1021.3F
30.7N   81.3W                 57                N/A     6/ 7   2/11
MAYPORT                    56 58   30/ 18/ 22 1020.4F
31.4N   80.9W              53 56   30/ 21/ 25 1021.4F   6/ 7   2/10
ST AUGUSTINE               57 58  360/ 18/ 19 1019.4F

$$
FLZ040-043>046-052-053-057-058-063-144-062200-
INTERIOR CENTRAL FLORIDA

CITY           SKY/WX    TMP DP  RH WIND       PRES   REMARKS
OCALA          RAIN      57  52  82 NE5       30.11R FOG
THE VILLAGES     N/A     57  57 100 N3        30.00S
LEESBURG       LGT RAIN  58  56  93 NE10      30.07F FOG
SANFORD        CLOUDY    60  58  92 N6        30.07F
ORLANDO EXEC   LGT RAIN  62  58  86 NE7       30.07F
ORLANDO INTL   LGT RAIN  62  58  86 NE10      30.07F
KISSIMMEE      LGT RAIN  63  61  94 N5        30.08F FOG
WINTER HAVEN   RAIN      60  59  96 NE6       30.07F
LAKELAND       LGT RAIN  57  57 100 W8        30.09S FOG
BARTOW         LGT RAIN  57  57 100 N5        30.07F
OKEECHOBEE     CLOUDY    72  63  73 NE6       30.02F

$$
FLZ041-047-054-059-064-141-147-062200-
EAST CENTRAL FLORIDA

CITY           SKY/WX    TMP DP  RH WIND       PRES   REMARKS
ORMOND BEACH   LGT RAIN N/A N/A N/A N6        30.09F FOG
DAYTONA BEACH  LGT RAIN  59  57  93 N7        30.09F FOG
DELAND           N/A     57  55  94 N6        30.11R
NEW SMYRNA BEA LGT RAIN  59  59 100 N14       30.06F FOG
JFK SPACE CTR  LGT RAIN  62  59  91 N6        30.06F
TITUSVILLE     LGT RAIN  61  59  94 N14       30.07F FOG
CAPE CANAVERAL LGT RAIN  63  61  94 N6        30.04F
PATRICK AFB    LGT RAIN  65  63  91 N10       30.05F
MELBOURNE      LGT RAIN  67  61  81 NE7       30.05F
VERO BEACH     CLOUDY    72  63  73 E10       30.04F
FT PIERCE      CLOUDY    71  64  78 E13       30.03F
STUART         MOSUNNY   75  61  60 E6        30.05F

STATION/POSITION SKY/WX   TEMP    WIND        PRES    WAVE   SWELL
                          AIR SEA DIR/SP/G            HT/PER HT/PER
                          (F)     (DEG/KT/KT) (MB)    (FT/S) (FT/S)
28.5N   80.2W              70 74   70/  8/ 12 1018.6F
28.9N   78.5W              69 75              1018.9F
TRIDENT PIER               64 65  360/  6/  9 1018.5F
28.4N   80.5W                 66                N/A     3/10   2/11
27.5N   80.2W                 74                N/A     4/11   2/11

$$
FLZ050-056-061-142-242-148-248-149-249-151-251-155-255-
160-260-062200-
WEST CENTRAL FLORIDA

CITY           SKY/WX    TMP DP  RH WIND       PRES   REMARKS
CRYSTAL RIVER  LGT RAIN  52  52 100 NW6       30.13R
INVERNESS      RAIN      54  54 100 CALM      30.12R
BROOKSVILLE    LGT RAIN  54  52  93 NW10      30.11F FOG
ZEPHYRHILLS    RAIN      55  54  97 W8        30.10R
CLEARWATER AIR LGT RAIN  52  52 100 N10G17    30.11F
ST PETE CLEARW LGT RAIN  54  52  93 NW13      30.12S FOG
TAMPA INTL     CLOUDY    54  52  93 NW10G21   30.12S
TAMPA EXEC     DRIZZLE   57  54  88 W6        30.12R
PLANT CITY     DRIZZLE   59  57  94 W9        30.13R
MACDILL AFB    LGT RAIN  54  54 100 NW10G22   30.11S
PETER O KNIGHT CLOUDY    57  55  94 NW7       30.11S
ST PETERSBURG  LGT RAIN  55  53  93 N12       30.09F
SARASOTA       LGT RAIN  55  54  96 NW10      30.09F FOG
VENICE         FAIR      57  55  94 NW13      30.10F

STATION/POSITION SKY/WX   TEMP    WIND        PRES    WAVE   SWELL
                          AIR SEA DIR/SP/G            HT/PER HT/PER
                          (F)     (DEG/KT/KT) (MB)    (FT/S) (FT/S)
CEDAR KEY                  48     340/ 11/ 16 1021.1F
28.5N   84.5W              57 69  360/ 16/ 19 1020.7F   4/ 6
27.3N   84.2W                 71                N/A     4/ 6
CLEARWATER BEACH           54 60  310/ 16/ 18 1020.4S
MIDDLE TAMPA BAY           55     330/ 16/ 20 1020.3S
VENICE                     58 64  330/ 22/ 23 1018.7F

$$
FLZ066-069-070-075>078-162-262-165-265-062200-
SOUTHWEST FLORIDA AND KEYS

CITY           SKY/WX    TMP DP  RH WIND       PRES   REMARKS
PUNTA GORDA    RAIN      56  56 100 NW15      30.09R FOG
FT MYERS       LGT RAIN  58  57  97 NW10      30.06S FOG
SOUTHWEST INTL RAIN      61  58  90 NW12G17   30.06R FOG
NAPLES         CLOUDY    62  59  90 NW13G23   30.06S
MARATHON       CLOUDY    75  69  81 VRB6      30.01F
KEY WEST NAS   RAIN      66  65  96 N13       30.04S FOG
KEY WEST INTL  HVY RAIN  65  65 100 N9        30.05S FOG

STATION/POSITION SKY/WX   TEMP    WIND        PRES    WAVE   SWELL
                          AIR SEA DIR/SP/G            HT/PER HT/PER
                          (F)     (DEG/KT/KT) (MB)    (FT/S) (FT/S)
VENICE                     58 64  330/ 22/ 23 1018.7F
NAPLES                        67              1017.7F
26.0N   85.6W              65 80  350/ 10/ 14 1020.8F   3/ 6   2/ 6
DRY TORTUGAS                                    N/A
SAND KEY                   65      10/ 15/ 17 1017.3F
LONG KEY                   74 72  130/ 11/ 13 1017.0F
MOLASSES REEF              75 77  130/ 12/ 14 1016.5F

$$
FLZ067-068-071>074-168-172>174-062200-
SOUTHEAST FLORIDA

CITY           SKY/WX    TMP DP  RH WIND       PRES   REMARKS
W PALM BEACH   PTSUNNY   76  64  66 E12       30.02F
BOCA RATON     MOSUNNY   75  66  73 SE12      30.02F
FT LAUDER-EXEC PTSUNNY   77  64  64 E12       30.01F
FT LAUDERDALE  PTSUNNY   76  64  66 SE10      30.01F
POMPANO BEACH  MOSUNNY   77  66  68 E8        30.02F
PEMBROKE PINES PTSUNNY   77  65  66 E9        30.03F
OPA LOCKA      PTSUNNY   78  65  63 SE13      30.02F
MIAMI          PTSUNNY   76  64  66 SE12      30.03R
WEST KENDALL   CLOUDY    76  66  71 E9        30.03S
HOMESTEAD      MOSUNNY   76  66  72 SE9       30.01F

STATION/POSITION SKY/WX   TEMP    WIND        PRES    WAVE   SWELL
                          AIR SEA DIR/SP/G      C1F1M1C2F2M2C3F3C4F4M3C5F5M4C6F6M5C7F7M6C8!



USA.gov is the U.S. government's official web portal to all federal, state and local government web resources and services.